Voltar ao catálogo

EKRAN 17

AtivoComunicaçõesGEO
NORAD 18715·PAYLOAD·🇷🇺 Russia

Lançado Dec 27, 1987 de Baikonur Cosmodrome

Loading…

TLE

AtualizadoSource: Space-Track

Época: Sep 14, 2026, 14:26 UTC

1 18715U 87109A   26257.60170779 -.00000149  00000-0  00000-0 0  9991
2 18715  13.3846 334.4006 0044893 244.3006 125.6966  0.95883197121678

Acompanhe EKRAN 17 em tempo real com AllMySat

Download on the App Store